Time,TemperatureF,DewpointF,PressureIn,WindDirection,WindDirectionDegrees,WindSpeedMPH,WindSpeedGustMPH,Humidity,HourlyPrecipIn,Conditions,Clouds,dailyrainin,SoftwareType,DateUTC
2013-01-13 00:00:00,79.5,74.6,29.79,SE,135,0.6,2.5,85,0.00,,BKN022,0.00,VWS V13.01,2013-01-12 14:00:00,
2013-01-13 00:15:00,79.4,74.5,29.78,SSE,158,0.6,1.3,85,0.00,,BKN022,0.00,VWS V13.01,2013-01-12 14:15:00,
2013-01-13 00:30:00,79.0,74.5,29.78,SSE,158,0.6,1.3,86,0.00,,BKN022,0.00,VWS V13.01,2013-01-12 14:30:00,
2013-01-13 00:45:00,78.5,74.3,29.77,SSW,202,0.6,1.3,87,0.00,,BKN022,0.00,VWS V13.01,2013-01-12 14:45:00,
2013-01-13 01:00:00,78.5,74.3,29.76,SE,135,0.6,1.3,87,0.00,,BKN022,0.00,VWS V13.01,2013-01-12 15:00:00,
2013-01-13 01:15:00,78.5,74.3,29.76,SE,135,0.6,0.0,87,0.00,,BKN022,0.00,VWS V13.01,2013-01-12 15:15:00,
2013-01-13 01:30:00,78.0,74.2,29.76,SE,135,0.6,0.0,88,0.00,,BKN022,0.00,VWS V13.01,2013-01-12 15:30:00,
2013-01-13 01:45:00,78.0,74.2,29.75,East,90,0.6,1.3,88,0.00,,BKN022,0.00,VWS V13.01,2013-01-12 15:45:00,
2013-01-13 02:00:00,77.9,74.1,29.75,East,90,0.6,0.0,88,0.00,,BKN022,0.00,VWS V13.01,2013-01-12 16:00:00,
2013-01-13 02:15:00,77.6,73.8,29.75,East,90,0.6,0.0,88,0.00,,BKN022,0.00,VWS V13.01,2013-01-12 16:15:00,
2013-01-13 02:30:00,77.5,74.0,29.75,ESE,112,0.6,1.3,89,0.00,,BKN022,0.00,VWS V13.01,2013-01-12 16:30:00,
2013-01-13 02:45:00,77.6,73.8,29.75,ESE,112,0.6,1.3,88,0.00,,BKN022,0.00,VWS V13.01,2013-01-12 16:45:00,
2013-01-13 03:00:00,77.8,74.0,29.75,ESE,112,0.6,1.3,88,0.00,,BKN022,0.00,VWS V13.01,2013-01-12 17:00:00,
2013-01-13 03:15:00,78.5,74.0,29.75,SE,135,0.6,2.5,86,0.00,,BKN022,0.00,VWS V13.01,2013-01-12 17:15:00,
2013-01-13 03:30:00,78.7,74.2,29.76,ESE,112,0.6,2.5,86,0.00,,BKN022,0.00,VWS V13.01,2013-01-12 17:30:00,
2013-01-13 03:45:00,78.3,73.8,29.76,SE,135,1.9,3.8,86,0.00,,BKN022,0.00,VWS V13.01,2013-01-12 17:45:00,
2013-01-13 04:00:00,78.3,73.8,29.76,SE,135,0.6,1.3,86,0.00,,BKN022,0.00,VWS V13.01,2013-01-12 18:00:00,
2013-01-13 04:15:00,78.2,74.0,29.76,SE,135,0.6,1.3,87,0.00,,BKN022,0.00,VWS V13.01,2013-01-12 18:15:00,
2013-01-13 04:30:00,77.8,73.6,29.77,SE,135,0.6,1.3,87,0.00,,BKN022,0.00,VWS V13.01,2013-01-12 18:30:00,
2013-01-13 04:45:00,77.7,73.5,29.77,ESE,112,0.6,2.5,87,0.00,,BKN022,0.00,VWS V13.01,2013-01-12 18:45:00,
2013-01-13 05:00:00,77.4,73.6,29.78,ESE,112,0.6,0.0,88,0.00,,BKN022,0.00,VWS V13.01,2013-01-12 19:00:00,
2013-01-13 05:15:00,77.0,73.5,29.78,ESE,112,0.6,0.0,89,0.00,,BKN022,0.00,VWS V13.01,2013-01-12 19:15:00,
2013-01-13 05:30:00,76.8,73.3,29.79,ESE,112,0.6,0.0,89,0.00,,BKN022,0.00,VWS V13.01,2013-01-12 19:30:00,
2013-01-13 05:45:00,76.7,73.2,29.79,SE,135,0.6,2.5,89,0.00,,BKN022,0.00,VWS V13.01,2013-01-12 19:45:00,
2013-01-13 06:00:00,77.3,73.5,29.80,SE,135,0.6,2.5,88,0.00,,BKN022,0.00,VWS V13.01,2013-01-12 20:00:00,
2013-01-13 06:15:00,77.2,73.4,29.80,SE,135,0.6,1.3,88,0.00,,BKN022,0.00,VWS V13.01,2013-01-12 20:15:00,
2013-01-13 06:30:00,77.3,73.8,29.81,SE,135,0.6,1.3,89,0.00,,BKN022,0.00,VWS V13.01,2013-01-12 20:30:00,
2013-01-13 06:45:00,78.3,74.1,29.81,SE,135,1.9,3.8,87,0.00,,BKN022,0.00,VWS V13.01,2013-01-12 20:45:00,
2013-01-13 07:00:00,79.2,74.3,29.82,SE,135,1.9,3.8,85,0.00,,BKN022,0.00,VWS V13.01,2013-01-12 21:00:00,
2013-01-13 07:15:00,80.3,74.7,29.81,SE,135,1.9,5.0,83,0.00,,BKN022,0.00,VWS V13.01,2013-01-12 21:15:00,
2013-01-13 07:27:00,80.3,74.7,29.81,SE,135,1.9,5.0,83,0.00,,BKN022,0.00,VWS V13.01,2013-01-12 21:27:00,
2013-01-13 07:32:00,82.3,75.1,29.81,SSE,148,1.9,5.0,79,0.00,,SCT300,0.00,VWS V13.01,2013-01-12 21:32:00,
2013-01-13 07:37:00,82.6,75.4,29.81,East,94,3.1,5.0,79,0.00,,SCT300,0.00,VWS V13.01,2013-01-12 21:37:00,
2013-01-13 07:42:00,83.4,75.8,29.81,East,99,4.4,5.0,78,0.00,,SCT300,0.00,VWS V13.01,2013-01-12 21:42:00,
2013-01-13 07:47:00,83.7,75.7,29.82,ESE,102,1.9,5.0,77,0.00,,SCT300,0.00,VWS V13.01,2013-01-12 21:47:00,
2013-01-13 07:52:00,83.8,75.0,29.82,ESE,121,4.4,5.0,75,0.00,,SCT300,0.00,VWS V13.01,2013-01-12 21:52:00,
2013-01-13 07:57:00,84.4,76.0,29.82,South,171,1.9,5.0,76,0.00,,SCT300,0.00,VWS V13.01,2013-01-12 21:57:00,
2013-01-13 08:02:00,84.7,75.5,29.81,SW,222,4.4,5.0,74,0.00,,SCT300,0.00,VWS V13.01,2013-01-12 22:02:00,
2013-01-13 08:07:00,85.2,76.0,29.82,SSE,156,3.1,5.0,74,0.00,,SCT300,0.00,VWS V13.01,2013-01-12 22:07:00,
2013-01-13 08:12:00,85.9,76.2,29.82,WSW,241,1.9,5.0,73,0.00,,SCT300,0.00,VWS V13.01,2013-01-12 22:12:00,
2013-01-13 08:17:00,86.1,76.0,29.82,ESE,118,1.9,5.0,72,0.00,,FEW030,0.00,VWS V13.01,2013-01-12 22:17:00,
2013-01-13 08:22:00,85.9,74.6,29.82,ENE,77,3.1,5.0,69,0.00,,FEW030,0.00,VWS V13.01,2013-01-12 22:22:00,
2013-01-13 08:27:00,86.3,74.9,29.82,SSE,149,3.1,5.0,69,0.00,,FEW030,0.00,VWS V13.01,2013-01-12 22:27:00,
2013-01-13 08:32:00,86.0,75.1,29.82,SE,139,1.9,5.0,70,0.00,,FEW030,0.00,VWS V13.01,2013-01-12 22:32:00,
2013-01-13 08:37:00,85.7,74.8,29.82,SE,128,9.4,9.4,70,0.00,,FEW030,0.00,VWS V13.01,2013-01-12 22:37:00,
2013-01-13 08:42:00,86.2,74.8,29.82,ESE,116,3.1,5.0,69,0.00,,FEW030,0.00,VWS V13.01,2013-01-12 22:42:00,
2013-01-13 08:45:00,86.0,73.8,29.82,SE,135,4.4,12.5,67,0.00,,FEW030,0.00,VWS V13.01,2013-01-12 22:45:00,
2013-01-13 08:47:00,86.3,73.6,29.82,ESE,121,4.4,5.0,66,0.00,,FEW030,0.00,VWS V13.01,2013-01-12 22:47:00,
2013-01-13 09:00:00,86.7,74.4,29.82,ESE,112,5.6,12.5,67,0.00,,FEW030,0.00,VWS V13.01,2013-01-12 23:00:00,
2013-01-13 09:15:00,87.5,74.3,29.82,ESE,112,4.4,11.3,65,0.00,,FEW030,0.00,VWS V13.01,2013-01-12 23:15:00,
2013-01-13 09:30:00,87.5,73.8,29.82,SE,135,5.6,11.3,64,0.00,,FEW030,0.00,VWS V13.01,2013-01-12 23:30:00,
2013-01-13 09:45:00,87.7,73.6,29.82,SE,135,4.4,13.7,63,0.00,,FEW030,0.00,VWS V13.01,2013-01-12 23:45:00,
2013-01-13 10:00:00,88.1,74.4,29.81,ESE,112,5.6,13.7,64,0.00,,FEW030,0.00,VWS V13.01,2013-01-13 00:00:00,
2013-01-13 10:15:00,88.3,74.1,29.81,ESE,112,5.6,13.7,63,0.00,,FEW030,0.00,VWS V13.01,2013-01-13 00:15:00,
2013-01-13 10:30:00,88.3,74.1,29.82,ESE,115,5.0,6.0,63,0.00,,,0.00,Wunderground v.1.15,2013-01-13 00:30:00,
2013-01-13 10:45:00,88.1,73.4,29.81,ENE,68,6.9,13.7,62,0.00,,FEW030,0.00,VWS V13.01,2013-01-13 00:45:00,
2013-01-13 11:00:00,88.2,73.6,29.81,ENE,68,6.9,16.3,62,0.00,,FEW030,0.00,VWS V13.01,2013-01-13 01:00:00,
2013-01-13 11:15:00,87.7,74.0,29.81,East,90,8.1,16.3,64,0.00,,FEW030,0.00,VWS V13.01,2013-01-13 01:15:00,
2013-01-13 11:30:00,88.1,73.9,29.81,ENE,68,6.9,16.3,63,0.00,,FEW030,0.00,VWS V13.01,2013-01-13 01:30:00,
2013-01-13 11:45:00,88.4,75.6,29.80,ENE,68,6.9,15.0,66,0.00,,FEW030,0.00,VWS V13.01,2013-01-13 01:45:00,
2013-01-13 12:00:00,88.6,75.8,29.80,ENE,68,6.9,17.5,66,0.00,,FEW030,0.00,VWS V13.01,2013-01-13 02:00:00,
2013-01-13 12:15:00,88.1,75.3,29.80,ENE,68,6.9,16.3,66,0.00,,FEW030,0.00,VWS V13.01,2013-01-13 02:15:00,
2013-01-13 12:30:00,88.3,76.4,29.80,ENE,68,6.9,15.0,68,0.00,,FEW030,0.00,VWS V13.01,2013-01-13 02:30:00,
2013-01-13 12:45:00,88.2,76.3,29.79,ENE,68,8.1,16.3,68,0.00,,FEW030,0.00,VWS V13.01,2013-01-13 02:45:00,
2013-01-13 13:00:00,87.9,76.0,29.79,ENE,68,8.1,17.5,68,0.00,,FEW030,0.00,VWS V13.01,2013-01-13 03:00:00,
2013-01-13 13:15:00,88.2,74.5,29.78,ENE,68,6.9,17.5,64,0.00,,FEW030,0.00,VWS V13.01,2013-01-13 03:15:00,
2013-01-13 13:30:00,88.4,76.1,29.77,ENE,68,8.1,18.7,67,0.00,,FEW030,0.00,VWS V13.01,2013-01-13 03:30:00,
2013-01-13 13:45:00,88.4,76.5,29.77,ENE,68,8.1,16.3,68,0.00,,FEW030,0.00,VWS V13.01,2013-01-13 03:45:00,
2013-01-13 14:00:00,87.9,76.0,29.77,ENE,68,8.1,18.7,68,0.00,,FEW030,0.00,VWS V13.01,2013-01-13 04:00:00,
2013-01-13 14:15:00,87.9,76.5,29.77,ENE,68,6.9,16.3,69,0.00,,FEW030,0.00,VWS V13.01,2013-01-13 04:15:00,
2013-01-13 14:30:00,88.0,76.1,29.76,ENE,68,6.9,15.0,68,0.00,,FEW030,0.00,VWS V13.01,2013-01-13 04:30:00,
2013-01-13 14:45:00,87.7,75.4,29.76,ENE,68,6.9,15.0,67,0.00,,FEW030,0.00,VWS V13.01,2013-01-13 04:45:00,
2013-01-13 15:00:00,87.8,74.6,29.75,ENE,68,6.9,13.7,65,0.00,,FEW030,0.00,VWS V13.01,2013-01-13 05:00:00,
2013-01-13 15:15:00,88.2,75.9,29.75,ENE,68,6.9,13.7,67,0.00,,FEW030,0.00,VWS V13.01,2013-01-13 05:15:00,
2013-01-13 15:30:00,87.8,75.0,29.75,ENE,68,6.9,15.0,66,0.00,,FEW030,0.00,VWS V13.01,2013-01-13 05:30:00,
2013-01-13 15:45:00,87.7,74.5,29.75,ENE,68,6.9,16.3,65,0.00,,FEW030,0.00,VWS V13.01,2013-01-13 05:45:00,
2013-01-13 16:00:00,87.2,74.5,29.75,ENE,68,6.9,13.7,66,0.00,,FEW030,0.00,VWS V13.01,2013-01-13 06:00:00,
2013-01-13 16:15:00,87.6,74.8,29.75,ENE,68,5.6,15.0,66,0.00,,FEW030,0.00,VWS V13.01,2013-01-13 06:15:00,
2013-01-13 16:30:00,87.2,74.0,29.75,ENE,68,6.9,13.7,65,0.00,,FEW030,0.00,VWS V13.01,2013-01-13 06:30:00,
2013-01-13 16:45:00,87.4,74.2,29.75,ENE,68,5.6,11.3,65,0.00,,FEW030,0.00,VWS V13.01,2013-01-13 06:45:00,
2013-01-13 17:00:00,87.2,74.5,29.75,ENE,68,5.6,11.3,66,0.00,,FEW030,0.00,VWS V13.01,2013-01-13 07:00:00,
2013-01-13 17:15:00,87.1,73.9,29.76,ENE,68,5.6,13.7,65,0.00,,FEW030,0.00,VWS V13.01,2013-01-13 07:15:00,
2013-01-13 17:30:00,86.5,73.8,29.76,ENE,68,6.9,12.5,66,0.00,,FEW030,0.00,VWS V13.01,2013-01-13 07:30:00,
2013-01-13 17:45:00,86.1,73.9,29.76,ENE,68,5.6,12.5,67,0.00,,FEW030,0.00,VWS V13.01,2013-01-13 07:45:00,
2013-01-13 18:00:00,85.8,74.0,29.76,ENE,68,4.4,11.3,68,0.00,,FEW030,0.00,VWS V13.01,2013-01-13 08:00:00,
2013-01-13 18:15:00,85.4,72.3,29.77,ENE,68,4.4,8.7,65,0.00,,FEW030,0.00,VWS V13.01,2013-01-13 08:15:00,
2013-01-13 18:30:00,85.1,72.9,29.77,ENE,68,3.1,7.5,67,0.00,,FEW030,0.00,VWS V13.01,2013-01-13 08:30:00,
2013-01-13 18:45:00,84.0,72.7,29.77,ENE,68,4.4,8.7,69,0.00,,FEW030,0.00,VWS V13.01,2013-01-13 08:45:00,
2013-01-13 19:00:00,83.4,72.6,29.78,ENE,68,3.1,10.0,70,0.00,,FEW030,0.00,VWS V13.01,2013-01-13 09:00:00,
2013-01-13 19:15:00,82.9,72.5,29.79,ENE,68,1.9,8.7,71,0.00,,FEW030,0.00,VWS V13.01,2013-01-13 09:15:00,
2013-01-13 19:30:00,82.6,73.1,29.79,SE,135,1.9,6.2,73,0.00,,FEW030,0.00,VWS V13.01,2013-01-13 09:30:00,
2013-01-13 19:45:00,82.3,72.8,29.80,SE,135,1.9,6.2,73,0.00,,FEW030,0.00,VWS V13.01,2013-01-13 09:45:00,
2013-01-13 20:00:00,82.0,72.9,29.79,SE,135,1.9,5.0,74,0.00,,FEW030,0.00,VWS V13.01,2013-01-13 10:00:00,
2013-01-13 20:15:00,81.9,73.2,29.79,SE,135,1.9,3.8,75,0.00,,FEW030,0.00,VWS V13.01,2013-01-13 10:15:00,
2013-01-13 20:30:00,81.7,73.0,29.80,SE,135,1.9,6.2,75,0.00,,FEW030,0.00,VWS V13.01,2013-01-13 10:30:00,
2013-01-13 20:45:00,80.6,72.7,29.80,West,270,0.6,2.5,77,0.00,,FEW030,0.00,VWS V13.01,2013-01-13 10:45:00,
2013-01-13 21:00:00,79.4,72.3,29.80,WSW,248,1.9,5.0,79,0.00,,FEW030,0.00,VWS V13.01,2013-01-13 11:00:00,
2013-01-13 21:15:00,78.3,72.4,29.80,WSW,248,1.9,3.8,82,0.00,,FEW030,0.00,VWS V13.01,2013-01-13 11:15:00,
2013-01-13 21:30:00,78.1,72.2,29.80,WSW,248,3.1,5.0,82,0.00,,FEW030,0.00,VWS V13.01,2013-01-13 11:30:00,
2013-01-13 21:45:00,77.9,72.3,29.81,West,270,0.6,2.5,83,0.00,,FEW030,0.00,VWS V13.01,2013-01-13 11:45:00,
2013-01-13 22:00:00,77.8,72.2,29.81,West,270,0.6,2.5,83,0.00,,FEW030,0.00,VWS V13.01,2013-01-13 12:00:00,
2013-01-13 22:15:00,77.4,72.2,29.80,WSW,248,1.9,2.5,84,0.00,,FEW030,0.00,VWS V13.01,2013-01-13 12:15:00,
2013-01-13 22:30:00,76.8,71.9,29.81,WSW,248,1.9,2.5,85,0.00,,FEW030,0.00,VWS V13.01,2013-01-13 12:30:00,
2013-01-13 22:45:00,76.5,71.7,29.81,WSW,248,1.9,2.5,85,0.00,,FEW030,0.00,VWS V13.01,2013-01-13 12:45:00,
2013-01-13 23:00:00,76.3,71.5,29.81,WSW,248,1.9,2.5,85,0.00,,FEW030,0.00,VWS V13.01,2013-01-13 13:00:00,
2013-01-13 23:15:00,76.1,71.6,29.80,WSW,248,0.6,2.5,86,0.00,,FEW030,0.00,VWS V13.01,2013-01-13 13:15:00,
2013-01-13 23:30:00,75.8,71.3,29.80,WSW,248,0.6,1.3,86,0.00,,FEW030,0.00,VWS V13.01,2013-01-13 13:30:00,
2013-01-13 23:45:00,75.3,71.2,29.80,WSW,248,0.6,1.3,87,0.00,,FEW030,0.00,VWS V13.01,2013-01-13 13:45:00,